Location: Pasadena, ca
(34.1243°N, 118.1037°W)
Time: 20:00:14
(UTC-07:00)

Vanguard 2 Rocket - Visible Passes

Search period start: 15 August 2018 00:00
Search period end: 25 August 2018 00:00
Orbit: 554 x 3327 km, 32.9° (Epoch: 15 August)

Date Brightness Start Highest point End Pass type
(mag) Time Alt. Az. Time Alt. Az. Time Alt. Az.
15 Aug 7.4 20:20:14 10° W 20:30:44 80° S 20:36:14 12° E visible
15 Aug 7.8 22:37:26 10° W 22:42:02 38° W 22:42:02 38° W visible
16 Aug 6.7 21:36:18 10° W 21:44:46 77° S 21:45:53 59° ESE visible
17 Aug 7.4 20:34:37 10° W 20:45:10 83° S 20:49:44 19° E visible
17 Aug 8.4 22:51:55 10° W 22:55:32 27° W 22:55:32 27° W visible
18 Aug 6.9 21:50:43 10° W 21:59:06 64° SSW 21:59:23 63° S visible
19 Aug 7.4 20:49:02 10° W 20:59:35 78° S 21:03:13 28° ESE visible
19 Aug 8.9 23:06:35 10° W 23:09:01 19° WSW 23:09:01 19° WSW visible
20 Aug 8.0 19:46:49 10° W 19:59:41 84° S 20:06:37 10° E visible
20 Aug 7.5 22:05:11 10° W 22:12:51 47° SW 22:12:51 47° SW visible
21 Aug 7.5 21:03:26 10° W 21:13:52 66° SSW 21:16:41 36° SE visible
21 Aug 9.4 23:21:46 10° W 23:22:29 12° WSW 23:22:29 12° WSW visible
22 Aug 8.0 20:01:13 10° W 20:14:04 79° SSW 20:20:31 13° ESE visible
22 Aug 8.2 22:19:48 10° W 22:26:20 32° SW 22:26:20 32° SW visible
23 Aug 7.7 21:17:52 10° W 21:27:59 51° SSW 21:30:10 38° SSE visible
24 Aug 8.1 20:15:37 10° W 20:28:21 68° SSW 20:34:02 18° ESE visible
24 Aug 8.9 22:34:53 10° W 22:39:50 21° SW 22:39:50 21° SW visible
